Location: Newark
(35.9031°N, 139.7175°E)
Time: 07:55:57
(UTC+00:00)

Altair - All Passes

Search period start: 26 May 2020 00:00
Search period end: 05 June 2020 00:00
Orbit: 1501 x 1683 km, 47.2° (Epoch: 25 May)

Date Brightness Start Highest point End Pass type
(mag) Time Alt. Az. Time Alt. Az. Time Alt. Az.
26 May - 10:36:44 10° SE 10:39:59 12° ESE 10:43:15 10° E visible
26 May - 12:33:37 10° SSW 12:43:09 55° SE 12:52:57 10° ENE visible
26 May - 14:38:05 10° WSW 14:48:04 63° NNW 14:58:10 10° NE visible
26 May - 16:45:01 10° WNW 16:54:36 44° N 17:04:08 10° ENE visible
26 May - 18:51:07 10° NW 19:01:11 61° NNE 19:11:01 10° ESE visible
26 May - 20:56:21 10° WNW 21:06:08 57° SW 21:15:36 10° SSE daylight
26 May - 23:05:27 10° W 23:09:19 13° WSW 23:13:10 10° SW daylight
27 May - 12:08:37 10° SSW 12:18:01 50° SE 12:27:39 10° ENE visible
27 May - 14:12:48 10° WSW 14:22:46 66° NNW 14:32:55 10° NE visible
27 May - 16:19:39 10° WNW 16:29:14 44° N 16:38:47 10° ENE visible
27 May - 18:25:51 10° WNW 18:35:53 58° NNE 18:45:42 10° E visible
27 May - 20:31:04 10° WNW 20:40:59 62° SW 20:50:35 10° SE daylight
27 May - 22:39:17 10° W 22:44:17 15° WSW 22:49:13 10° SSW daylight
28 May - 11:43:41 10° SSW 11:52:53 46° SE 12:02:20 10° ENE visible
28 May - 13:47:31 10° WSW 13:57:29 69° NNW 14:07:41 10° NE visible
28 May - 15:54:17 10° WNW 16:03:52 44° N 16:13:27 10° ENE visible
28 May - 18:00:35 10° WNW 18:10:35 56° NNE 18:20:23 10° E visible
28 May - 20:05:48 10° WNW 20:15:49 67° SW 20:25:32 10° SE daylight
28 May - 22:13:23 10° W 22:19:14 17° WSW 22:25:00 10° SSW daylight
29 May - 11:18:46 10° SSW 11:27:46 42° SE 11:37:00 10° ENE visible
29 May - 13:22:15 10° WSW 13:32:14 73° NNW 13:42:27 10° NE visible
29 May - 15:28:55 10° WNW 15:38:30 45° N 15:48:07 10° ENE visible
29 May - 17:35:19 10° WNW 17:45:16 54° NNE 17:55:03 10° E visible
29 May - 19:40:33 10° WNW 19:50:39 72° SW 20:00:27 10° SE daylight
29 May - 21:47:38 10° W 21:54:11 20° WSW 22:00:37 10° SSW daylight
30 May - 10:53:54 10° SSW 11:02:39 38° SE 11:11:39 10° ENE visible
30 May - 12:57:01 10° WSW 13:06:58 77° NNW 13:17:12 10° NE visible
30 May - 15:03:33 10° W 15:13:08 45° N 15:22:47 10° ENE visible
30 May - 17:10:03 10° WNW 17:19:56 52° NNE 17:29:42 10° E visible
30 May - 19:15:17 10° WNW 19:25:28 78° SW 19:35:21 10° SE daylight
30 May - 21:22:00 10° WNW 21:29:07 22° SW 21:36:08 10° S daylight
31 May - 10:29:04 10° S 10:37:33 35° SE 10:46:16 10° ENE visible
31 May - 12:31:48 10° WSW 12:41:44 82° NNW 12:51:58 10° NE visible
31 May - 14:38:11 10° W 14:47:47 46° N 14:57:29 10° ENE visible
31 May - 16:44:46 10° WNW 16:54:36 50° NNE 17:04:20 10° E visible
31 May - 18:50:03 10° WNW 19:00:16 83° SW 19:10:13 10° SE visible
31 May - 20:56:26 10° WNW 21:04:03 25° SW 21:11:32 10° S daylight
01 Jun - 10:04:18 10° S 10:12:27 31° SE 10:20:50 10° ENE visible
01 Jun - 12:06:36 10° SW 12:16:30 86° NNW 12:26:44 10° NE visible
01 Jun - 14:12:50 10° W 14:22:25 47° NNW 14:32:10 10° ENE visible
01 Jun - 16:19:29 10° WNW 16:29:15 49° NNE 16:38:59 10° E visible
01 Jun - 18:24:48 10° WNW 18:35:03 88° SW 18:45:04 10° SE visible
01 Jun - 20:30:55 10° WNW 20:38:59 28° SW 20:46:52 10° S daylight
02 Jun - 09:39:34 10° S 09:47:23 28° SE 09:55:23 10° ENE daylight
02 Jun - 11:41:25 10° SW 11:51:17 89° SE 12:01:29 10° ENE visible
02 Jun - 13:47:28 10° W 13:57:05 48° NNW 14:06:51 10° ENE visible
02 Jun - 15:54:11 10° WNW 16:03:55 47° NNE 16:13:36 10° E visible
02 Jun - 17:59:34 10° NW 18:09:49 87° NE 18:19:52 10° SE visible
02 Jun - 20:05:28 10° WNW 20:13:53 31° SW 20:22:09 10° S daylight
03 Jun - 09:14:54 10° S 09:22:19 25° SE 09:29:54 10° ENE daylight
03 Jun - 11:16:17 10° SW 11:26:05 84° SE 11:36:14 10° ENE visible
03 Jun - 13:22:07 10° W 13:31:45 50° NNW 13:41:33 10° ENE visible
03 Jun - 15:28:53 10° WNW 15:38:34 46° N 15:48:14 10° E visible
03 Jun - 17:34:20 10° NW 17:44:35 83° NNE 17:54:40 10° ESE visible
03 Jun - 19:40:03 10° WNW 19:48:47 34° SW 19:57:21 10° S daylight
04 Jun - 08:50:19 10° S 08:57:15 23° SE 09:04:20 10° ENE daylight
04 Jun - 10:51:10 10° SW 11:00:53 79° SE 11:11:00 10° ENE visible
04 Jun - 12:56:48 10° W 13:06:24 51° NNW 13:16:17 10° ENE visible
04 Jun - 15:03:35 10° WNW 15:13:12 45° N 15:22:51 10° E visible
04 Jun - 17:09:06 10° NW 17:19:21 78° NNE 17:29:26 10° ESE visible
04 Jun - 19:14:40 10° WNW 19:23:41 38° SW 19:32:31 10° SSE daylight
